Home > Weather > Plettenberg > Past weeks

Flag for Germany Weather for the Past 2 Weeks in Plettenberg, North Rhine-Westphalia, Germany

Now
43 °F

Sunny.


Feels Like: 35 °F
Forecast: 34 / 39 °F
Wind: 15 mph from Southwest

Location: Dortmund / Wickede

Current Time: Feb 9, 2016 at 11:09:52 AM

Latest Report: Feb 9, 2016 at 10:20 AM


Visibility: 10 mi

Pressure: 29.30 "Hg

Humidity: 71%

Dew point: 34 °F

Location of PlettenbergLocation

Historic Weather in Plettenberg — Graph

°F

Plettenberg Temperature Yesterday

Maximum temperature yesterday: 48 °F (at 1:50 PM)
Minimum temperature yesterday: 41 °F (at 4:20 PM)
Average temperature yesterday: 45 °F

High & Low Weather Summary for the Past Weeks

 TemperatureHumidityPressure
High54 °F (Jan 25, 3:20 PM)94% (Feb 1, 7:20 AM)30.33 "Hg (Feb 1, 7:20 AM)
Low36 °F (Jan 28, 7:50 PM)53% (Jan 28, 2:20 PM)29.24 "Hg (Feb 8, 11:20 AM)
Average45 °F75%29.93 "Hg
* Reported Jan 25 8:20 AM — Feb 9 8:50 AM, Plettenberg, Weather by CustomWeather, © 2016

Note: Actual official high and low records may vary slightly from our data, if they occured in-between our weather recording intervals... More about our weather records

Advertising

Plettenberg Weather History for the Previous 24 Hours

 ConditionsComfort  
Time TempWeatherWind HumidityBarometerVisibility
8:50 AM
Tue, Feb 9
43 °FPartly sunny.15 mph71%29.36 "HgN/A
8:20 AM43 °FPartly sunny.15 mph71%29.39 "HgN/A
7:50 AM41 °FPassing clouds.12 mph81%29.39 "HgN/A
6:50 AM39 °FLight rain. Partly cloudy.13 mph87%29.42 "HgN/A
6:20 AM43 °FLight rain. Passing clouds.24 mph66%29.42 "HgN/A
5:50 AM43 °FPassing clouds.23 mph66%29.42 "HgN/A
5:20 AM43 °FPassing clouds.26 mph66%29.42 "HgN/A
10:50 PM
Mon, Feb 8
45 °FLight rain. Passing clouds.32 mph66%29.36 "HgN/A
10:20 PM45 °FPassing clouds.30 mph66%29.33 "HgN/A
9:50 PM45 °FLight rain. Passing clouds.30 mph66%29.33 "HgN/A
9:20 PM46 °FPassing clouds.32 mph57%29.30 "HgN/A
8:50 PM45 °FLight rain. Passing clouds.29 mph66%29.30 "HgN/A
8:20 PM45 °FLight rain. Passing clouds.31 mph61%29.30 "HgN/A
7:50 PM45 °FPassing clouds.33 mph61%29.30 "HgN/A
7:20 PM45 °FSprinkles. Passing clouds.29 mph66%29.30 "HgN/A
6:50 PM46 °FPassing clouds.32 mph57%29.30 "HgN/A
6:20 PM45 °FPassing clouds.29 mph61%29.30 "HgN/A
5:50 PM45 °FPassing clouds.30 mph61%29.27 "HgN/A
5:20 PM45 °FPartly sunny.36 mph61%29.27 "HgN/A
4:50 PM43 °FSunny.15 mph76%29.27 "Hg10 mi
4:20 PM41 °FPassing clouds.15 mph76%29.27 "HgN/A
3:50 PM46 °FThundershowers. Partly sunny.17 mph62%29.27 "Hg6 mi
3:20 PM46 °FPartly sunny.24 mph62%29.24 "HgN/A
2:50 PM46 °FScattered clouds.20 mph66%29.24 "HgN/A
2:20 PM43 °FScattered clouds.21 mph81%29.27 "HgN/A
1:50 PM48 °FScattered showers. Partly sunny.23 mph62%29.24 "HgN/A
1:20 PM46 °FPartly sunny.21 mph66%29.24 "HgN/A
12:50 PM46 °FScattered clouds.22 mph71%29.24 "HgN/A
12:20 PM46 °FPartly sunny.24 mph71%29.27 "HgN/A
11:50 AM46 °FBroken clouds.21 mph71%29.27 "HgN/A
11:20 AM46 °FBroken clouds.25 mph76%29.24 "HgN/A
Weather by CustomWeather, © 2016

See weather overviewHow to use our weather pages